map of KBV home
KBV - Airport
Location
City:  Krabi, Krabi, Thailand
ICAO:VTSG
IATA:KBV

Details
Type:Airport (Aerodrome, Airfield)
Use:Public/Civil
Latitude:805'45"N (8.095969)
Longitude:9859'20"E (98.988764)
Datum:WGS 1984
Elevation:93 ft (28 m)
Variation:0.47W (WMM2015v2 magnetic declination)
-0.01 annual change
Runways:1
Longest:9850 × 148 ft (3002 × 45 m), paved

Time
Time Zone:UTC+7
Local Time:

Weather
METAR:VTSG 041400Z VRB02KT 9999 FEW020 27/22 Q1014 NOSIG
TAF:VTSG 041100Z 0412/0512 11005KT 9000 FEW020
BECMG 0415/0417 VRB02KT 8000
BECMG 0500/0502 04007KT 9999

Related Locations
Nearby:
Farthest:SPYO: 12335 mi / 19852 km
Pacasmayo [Pacasmayo Airport], LAL, PE

Find:

   beyond  
but within

Other Information
Maps:
NOTAMs:
Links:
Sources:

  
  • flag of Thailand
  

Sectional Chart

Flight Planning
at skyvector.com

Satellite Image

Google Maps Satellite view

 

Copyright © 2004-2019 Karl L. Swartz. All rights reserved.
The Great Circle Mapper name and logo are trademarks of the Great Circle Mapper.
All other trademarks mentioned herein belong to their respective owners.
Please see credits for attibutions and further copyright information.

  Follow gcmap on Facebook Follow gcmap on Twitter GCmap on LinkedIn

hCard Microformat

Geo Microformat